Helicity
35 37 44 59 35 31 0 10 21 -5 2 -4 -13 11 68 141 97 58 -18 -1 23 122 36 31 40 64 69 71 60 45 48 40 45 42 49 36 35 41 38 44 40 42 48 51 52 52 57 71 84
26 8 47 35 53 83 47 9 28 -8 4 67 106 78 146 106 17 -13 -11 -30 36 136 70 60 54 66 80 68 60 47 48 34 40 43 49 39 29 31 40 48 47 48 55 53 52 51 53 69 82
9 22 43 54 50 112 105 28 51 -10 -2 61 83 109 91 82 12 8 1 73 79 110 89 78 59 57 80 78 69 62 57 50 28 37 34 43 36 38 30 32 37 39 46 56 53 51 47 53 76
26 47 30 90 142 92 35 -2 6 23 42 82 117 162 74 27 22 14 66 86 79 79 69 85 55 53 68 83 68 61 65 57 50 36 33 44 42 39 43 33 34 40 42 47 51 56 42 47 68
27 38 72 125 121 74 -26 -42 27 83 87 107 138 146 130 48 8 58 72 62 85 69 59 77 56 50 56 72 73 68 63 48 48 46 40 35 38 35 31 31 30 28 28 28 38 56 47 37 44
55 33 62 129 125 95 3 1 58 114 97 133 157 142 99 37 33 27 53 51 53 96 70 64 37 39 38 62 69 66 57 47 41 41 39 31 29 27 27 26 28 32 29 29 25 29 31 28 28
50 56 28 68 137 114 34 26 59 92 96 65 99 120 72 43 24 35 53 63 64 72 89 71 40 44 49 48 62 67 52 54 51 44 45 43 37 35 29 25 22 26 34 37 29 27 19 13 9
73 43 35 46 101 101 26 65 90 107 78 100 76 98 70 -1 54 89 101 82 74 59 62 76 62 61 65 53 54 63 56 55 62 56 52 45 36 33 28 30 26 26 28 35 44 37 27 17 1
69 62 40 93 149 196 63 21 47 59 97 62 80 108 33 131 160 157 115 77 73 66 50 58 72 82 81 76 79 87 86 67 62 59 59 62 43 40 36 32 30 33 33 28 28 34 31 26 21
100 52 19 53 130 262 177 27 45 67 95 106 118 174 225 164 128 121 98 108 95 78 42 48 73 88 94 91 93 102 109 103 84 66 57 59 40 39 42 43 36 35 42 48 46 46 37 38 43
93 60 30 3 59 59 151 151 36 76 87 77 87 172 236 220 154 131 96 79 86 96 79 31 65 88 100 111 114 116 103 91 86 76 72 62 57 45 43 46 42 42 32 36 36 42 67 60 51
86 38 55 -4 20 18 130 59 75 72 68 65 91 261 299 237 174 122 94 119 147 150 110 121 88 79 75 93 127 110 94 75 73 82 76 71 66 67 65 72 67 73 73 69 65 54 48 62 62
99 6 33 9 80 59 52 34 47 72 97 149 230 289 305 274 230 168 96 113 218 190 150 107 84 36 45 87 110 104 83 75 91 93 91 88 81 75 71 62 70 87 101 104 96 97 91 111 126
62 15 9 8 32 102 125 92 77 106 144 196 269 306 288 296 253 228 212 218 229 182 158 125 90 74 40 25 26 79 90 85 84 89 82 75 84 81 81 83 79 79 102 109 119 125 115 115 138
78 1 -22 -7 37 89 103 177 176 91 160 243 296 319 324 303 256 240 215 228 228 177 138 136 115 126 90 5 -2 41 69 60 67 73 70 70 87 96 114 107 120 124 141 137 149 140 139 125 122
118 91 89 49 74 95 89 -13 92 108 213 227 280 291 330 288 257 262 219 210 177 156 124 155 141 134 118 109 73 63 79 93 94 79 75 59 62 93 87 97 104 120 122 136 151 160 157 146 139
142 135 109 52 37 60 52 38 43 52 143 249 249 283 335 333 320 265 242 229 176 141 185 212 188 165 180 184 133 114 105 89 80 67 59 59 84 72 80 81 74 82 83 119 121 122 160 150 145
187 197 145 121 79 56 82 80 64 30 105 211 235 326 374 411 335 277 326 300 249 218 220 246 285 287 261 199 177 162 134 120 113 108 105 108 93 87 84 90 90 95 99 99 110 108 128 144 153
146 121 84 59 89 143 96 101 130 112 93 140 258 388 442 464 353 320 350 332 348 356 336 320 362 336 301 268 214 195 176 172 162 118 92 86 85 104 128 148 163 166 170 160 148 143 156 159 132
183 151 50 -30 15 89 109 106 130 75 36 169 299 366 429 482 377 382 376 408 422 418 408 420 407 385 349 268 248 217 192 172 120 99 90 82 92 107 124 147 167 183 188 192 178 148 133 127 116
192 181 80 108 55 56 166 115 62 146 54 126 195 285 429 508 527 505 462 436 439 430 392 413 396 411 393 289 220 190 151 123 98 80 57 72 91 113 143 180 201 201 176 183 158 137 164 189 162
258 130 101 102 89 95 126 106 -6 46 137 36 157 338 495 537 523 530 515 499 453 417 395 411 419 436 400 326 265 187 120 102 66 44 42 71 112 151 168 171 181 175 154 171 138 120 107 111 138
263 164 98 100 111 122 91 194 13 63 65 149 131 264 412 511 610 601 536 498 414 396 425 437 436 439 362 294 202 144 123 88 57 55 81 95 98 139 195 197 205 216 206 176 138 101 85 63 65
204 171 138 161 170 78 83 166 113 139 57 153 184 259 449 533 571 557 504 477 498 451 440 434 427 413 309 225 152 102 77 56 65 77 91 79 73 84 160 174 175 173 183 168 137 96 64 56 67
314 337 270 225 242 216 159 195 158 132 147 167 209 359 500 575 600 615 580 553 548 523 444 423 402 369 235 155 130 116 75 43 26 10 2 20 61 122 128 129 103 55 59 92 84 102 115 94 82
378 332 391 188 196 180 230 184 220 146 167 159 189 362 511 568 591 542 529 554 529 462 418 404 372 290 189 149 125 79 29 5 -7 8 56 98 120 93 78 56 57 48 30 22 11 33 58 69 63
422 333 229 223 226 182 201 184 230 239 202 245 370 461 570 605 587 535 547 561 531 425 380 338 287 226 170 121 74 42 8 2 24 82 125 125 118 119 65 60 63 52 37 29 39 70 76 86 91
281 326 304 396 196 166 195 175 173 152 208 296 352 404 511 609 606 637 591 538 471 406 328 287 217 174 138 90 53 36 44 75 112 143 162 156 143 137 135 127 127 126 124 107 93 114 127 124 116
407 329 298 203 278 246 193 147 167 223 273 278 323 436 596 682 753 713 637 535 422 363 312 272 264 234 181 117 94 106 111 155 157 153 153 162 155 153 141 132 138 147 150 155 166 168 167 156 153
162 238 278 298 323 315 281 37 232 110 202 300 428 512 637 735 774 723 646 537 435 372 377 380 317 255 201 165 151 149 173 177 183 187 194 179 163 134 108 122 135 138 146 151 159 135 153 215 155
Wind_Speed
33 37 32 29 23 24 20 20 19 22 25 21 24 22 26 34 29 25 24 24 26 31 30 33 34 35 35 35 35 38 40 39 38 37 37 38 40 40 38 37 36 36 36 37 37 37 36 37 37
34 30 29 25 22 19 20 19 21 22 23 28 28 30 35 33 30 24 23 20 20 28 30 32 35 34 34 33 33 36 35 37 37 35 34 36 35 35 35 34 34 34 34 34 34 34 34 34 35
32 31 26 22 22 22 21 17 21 19 23 22 25 32 32 32 30 23 26 21 23 27 29 32 35 34 34 33 33 32 30 31 33 32 31 32 33 32 32 32 31 31 31 31 31 32 31 31 33
32 28 26 20 20 23 17 16 18 19 21 29 25 31 29 33 27 24 22 27 26 27 28 33 35 34 32 33 32 30 27 26 28 28 28 27 28 29 29 29 28 28 28 28 28 29 28 28 29
31 27 24 21 26 24 19 17 13 18 22 24 32 27 28 32 29 27 25 24 27 25 26 30 33 32 31 32 29 26 23 23 24 24 24 24 25 25 25 25 26 26 26 26 26 26 26 25 25
29 27 22 18 35 37 24 20 22 21 22 23 26 25 25 23 25 24 24 25 24 25 25 28 30 30 30 29 28 27 23 22 21 21 22 22 22 22 21 21 21 22 23 23 23 23 23 23 22
26 28 24 24 32 34 23 19 21 18 18 23 20 24 22 20 21 23 25 24 22 23 25 26 26 26 25 27 27 26 25 22 20 19 18 18 18 18 18 17 17 17 18 19 19 19 19 21 19
24 27 23 22 24 27 31 19 19 18 22 21 21 22 17 16 19 21 22 22 20 20 22 22 21 20 20 24 23 20 19 19 17 16 15 16 16 16 15 14 13 13 13 14 16 16 16 17 18
25 24 21 21 20 34 36 22 19 20 20 22 24 17 21 17 17 17 18 16 16 17 17 15 14 13 14 17 19 16 14 13 13 12 12 13 14 15 15 11 10 9 11 12 13 14 15 16 16
23 23 15 20 25 47 54 35 29 28 27 26 22 27 16 17 15 10 9 9 10 12 13 13 12 11 10 8 11 9 8 7 8 8 9 10 10 10 10 10 6 6 7 10 12 18 22 21 19
26 24 28 32 42 44 57 56 21 35 33 24 15 10 11 10 9 8 8 8 11 11 11 15 12 6 4 5 4 6 10 11 10 7 6 6 8 8 8 11 8 7 9 10 12 18 22 20 19
33 32 45 46 46 48 48 32 26 25 33 36 12 4 6 6 7 6 6 8 6 7 8 7 6 7 5 9 6 6 12 12 15 12 10 8 6 7 8 8 7 9 10 12 11 15 16 18 22
29 37 43 42 52 51 53 31 23 35 30 22 12 8 3 4 9 19 24 11 3 3 4 5 7 6 6 12 19 20 16 15 17 15 12 11 9 9 12 10 9 11 15 14 15 17 22 25 28
36 46 62 57 51 50 51 47 39 32 15 14 10 9 2 2 4 16 19 20 13 5 3 4 7 8 9 12 17 12 12 13 14 15 13 10 10 11 12 15 19 24 26 25 22 24 30 35 40
39 57 65 59 54 47 44 49 36 32 14 11 10 6 5 1 2 7 15 21 20 13 1 1 3 8 11 12 17 22 19 16 13 16 17 13 12 12 17 21 24 27 31 34 36 37 40 44 47
49 52 49 48 45 53 44 35 38 33 17 16 13 8 5 5 4 8 12 18 22 16 8 3 3 6 13 18 18 18 24 24 24 27 32 36 24 26 31 35 38 41 41 41 43 48 50 51 54
51 54 47 66 48 47 36 49 61 55 23 22 18 13 11 9 8 10 12 16 20 19 12 8 5 5 10 19 22 23 25 26 29 33 36 39 42 41 41 44 49 51 51 50 53 55 54 60 63
45 51 52 48 44 38 42 67 77 62 24 23 24 17 15 13 8 5 11 16 18 19 15 12 10 9 11 16 21 24 26 31 36 39 43 46 48 48 49 51 55 56 56 59 60 61 59 59 64
58 60 63 60 48 54 72 79 78 61 28 19 20 20 18 14 10 5 10 13 16 18 15 14 12 13 12 17 20 25 28 33 38 42 45 51 54 55 57 58 59 60 61 63 64 66 73 73 72
53 64 63 82 66 56 78 79 67 41 27 22 23 23 20 14 10 7 7 11 14 14 14 15 16 17 19 19 23 26 27 34 38 46 50 56 59 59 60 64 67 66 65 66 67 69 74 74 71
57 56 67 60 68 66 72 79 60 50 34 22 19 22 21 21 15 11 10 9 8 10 11 14 17 20 22 22 24 28 32 38 45 54 56 61 63 64 67 70 70 69 66 69 67 70 75 83 76
69 51 60 63 62 61 42 74 58 50 50 23 19 22 23 21 16 15 13 10 5 6 9 12 17 20 24 27 31 36 41 48 52 56 61 66 67 68 67 70 71 71 70 72 72 72 76 77 84
62 53 55 54 57 64 66 70 34 58 45 37 26 24 25 24 21 17 12 8 6 6 7 11 15 21 26 30 35 41 48 52 55 60 65 68 69 68 69 71 72 72 71 73 77 78 78 74 77
53 62 65 63 59 59 47 51 65 42 41 50 33 30 29 28 23 18 15 11 10 8 7 10 16 24 28 33 39 46 51 57 64 68 71 72 69 67 69 71 72 72 73 75 76 76 76 76 73
50 55 68 66 59 65 48 60 52 59 45 43 36 33 31 32 29 23 19 15 11 8 9 14 20 27 30 36 42 50 57 63 68 68 68 72 74 74 74 73 72 71 70 72 76 80 79 77 76
55 50 58 65 71 83 53 58 56 45 44 40 30 27 27 29 27 25 22 16 13 10 11 16 22 28 34 41 49 55 59 64 63 66 70 73 74 72 71 70 69 72 72 75 76 79 79 77 77
58 61 57 74 66 75 56 64 58 59 47 39 32 29 32 33 31 28 22 17 12 10 13 17 23 28 35 42 49 55 59 63 69 71 71 73 73 73 73 72 76 77 78 79 78 79 79 75 75
69 47 56 58 70 64 74 73 61 47 39 30 25 26 28 31 29 25 22 17 12 11 15 18 21 29 38 44 52 59 66 69 72 77 81 82 82 81 82 84 83 83 81 78 75 76 73 70 67
61 64 61 55 62 69 70 73 51 36 28 24 23 24 28 30 30 26 21 15 12 13 14 20 28 37 46 53 59 65 68 75 78 80 83 85 85 86 85 86 86 85 85 80 78 75 71 68 68
61 61 59 58 55 62 78 108 50 29 20 20 20 22 25 26 26 23 20 16 15 16 20 27 36 42 50 57 61 65 69 74 78 82 83 82 83 82 84 84 82 83 83 80 76 76 73 70 70
Wind_Direction
319 303 323 327 346 4 79 41 40 71 67 63 73 60 44 359 8 34 30 87 64 107 113 117 115 113 109 105 97 94 90 82 77 71 67 69 74 78 77 75 72 71 71 69 66 66 62 54 48
313 324 324 338 5 31 33 35 46 54 66 56 33 14 359 14 12 37 23 47 75 104 108 117 120 116 113 108 102 99 92 88 85 80 73 72 69 69 71 71 71 72 70 66 64 64 62 57 50
320 319 323 339 13 19 17 55 30 48 80 6 22 2 1 3 20 48 353 45 77 100 106 116 123 120 116 112 107 101 92 88 88 82 76 74 74 71 70 69 69 71 69 68 64 63 61 61 55
320 319 327 346 18 0 42 54 42 50 352 343 25 3 2 359 23 27 48 71 82 90 98 115 121 119 116 115 111 106 95 89 89 83 82 74 71 75 77 74 69 67 70 71 69 62 62 63 59
323 327 331 341 337 345 356 360 51 15 7 5 344 353 355 344 32 52 65 73 90 86 92 110 119 119 118 117 113 104 94 89 88 86 81 76 73 76 77 79 81 76 71 70 70 63 60 61 62
315 325 341 347 310 317 327 333 337 349 359 7 7 5 17 25 34 51 67 80 83 89 95 106 116 118 117 115 113 110 104 97 92 85 79 76 69 70 75 77 77 73 68 65 68 62 52 52 58
327 319 327 333 324 313 331 339 344 3 8 356 27 12 26 36 48 69 73 74 73 78 96 105 109 110 110 114 114 114 115 109 99 90 79 66 68 59 65 73 71 65 64 65 66 68 60 43 50
336 327 330 335 348 338 322 340 351 3 346 351 2 8 35 74 65 69 62 63 61 66 87 103 105 102 101 115 118 109 105 105 97 92 78 54 56 49 57 62 64 77 71 58 51 50 48 40 32
336 326 324 327 357 316 307 349 356 14 0 340 337 18 3 67 55 54 61 45 40 36 64 76 88 93 96 110 118 112 96 89 82 64 59 46 38 29 25 40 45 48 33 29 29 26 22 17 15
336 319 316 318 328 296 275 321 327 325 330 330 336 341 50 75 79 42 25 30 16 38 56 83 100 105 93 71 106 99 85 53 37 50 52 45 41 39 36 30 42 34 21 1 358 351 347 351 354
341 312 303 301 304 310 291 286 330 313 317 332 338 21 70 65 15 3 19 56 92 73 66 105 104 75 47 27 64 357 343 345 354 19 25 30 19 24 20 8 8 3 353 347 341 336 332 336 338
329 310 295 293 301 306 305 316 317 316 312 312 336 66 54 66 42 28 101 120 88 90 97 60 62 94 64 360 12 355 323 330 331 348 357 356 352 350 347 342 342 340 334 328 325 330 328 325 325
329 317 302 296 294 298 301 306 308 303 312 322 336 332 77 23 354 321 314 342 63 95 33 15 16 59 43 350 329 322 323 330 336 346 356 358 352 348 351 348 343 334 331 322 315 314 318 318 319
336 320 296 292 288 292 294 298 302 305 316 316 310 304 54 88 4 321 327 334 343 353 358 4 345 1 17 8 351 348 343 338 340 348 348 340 332 329 330 331 330 327 324 322 318 315 315 314 314
332 315 302 292 287 287 292 291 294 304 291 284 290 283 285 253 342 349 342 338 339 335 315 316 43 17 5 14 4 350 346 1 0 351 351 348 337 320 321 321 322 320 319 316 314 313 313 312 310
320 320 319 307 291 285 285 264 288 296 269 259 251 262 260 260 282 338 353 358 347 353 15 51 13 17 355 354 353 352 353 354 355 348 342 342 341 330 326 324 320 321 318 316 314 311 309 307 306
311 310 315 299 297 292 284 291 282 288 257 241 232 239 244 262 297 325 350 1 5 355 14 47 87 68 0 347 352 349 350 353 350 347 347 345 342 340 332 327 324 322 319 315 314 312 310 308 306
309 308 312 311 303 298 292 279 276 288 266 224 216 233 235 245 256 315 346 353 2 10 20 25 39 27 9 360 359 0 4 358 351 349 347 346 343 341 338 334 330 329 326 323 320 317 315 313 310
299 303 305 308 302 293 279 275 274 286 276 247 232 234 236 238 255 296 344 359 4 6 18 27 36 18 19 358 358 353 351 350 352 352 349 345 341 338 336 335 334 333 330 327 325 322 318 316 317
294 298 300 291 293 291 274 276 280 295 287 253 230 227 217 217 213 258 321 341 353 6 10 16 20 21 11 3 357 356 354 351 350 344 342 340 338 338 335 331 328 327 326 325 325 323 318 317 317
291 293 298 298 293 288 283 280 283 285 291 278 245 226 221 205 215 240 281 313 342 357 6 15 16 14 10 9 3 354 348 344 338 334 334 334 334 333 332 331 330 328 326 323 322 320 319 314 314
284 295 294 296 293 287 290 283 280 281 282 266 245 235 226 220 230 248 265 284 320 348 356 5 7 5 359 359 354 347 339 333 332 331 331 331 333 333 334 333 331 329 326 323 322 321 319 317 313
283 294 293 295 290 287 281 283 263 275 268 271 250 234 222 220 225 232 239 247 281 315 355 5 358 354 352 350 345 340 334 333 331 329 328 331 333 334 332 332 331 329 327 324 321 319 317 316 313
288 287 289 290 289 274 274 276 283 264 262 277 258 241 228 222 228 235 246 248 264 287 318 339 338 336 341 343 341 337 333 331 328 327 327 329 332 333 333 333 332 331 328 327 325 323 320 317 313
270 280 282 283 279 281 284 276 250 279 276 268 251 242 234 227 220 219 218 226 249 261 294 314 322 328 338 340 338 335 330 328 327 328 330 329 330 330 330 331 331 331 330 328 326 324 322 321 316
259 258 270 278 282 283 279 274 280 280 276 275 262 236 232 217 216 210 210 218 231 256 292 313 323 329 332 333 332 332 330 330 332 331 330 329 329 329 330 330 330 329 327 325 324 323 321 320 318
264 255 263 276 283 283 282 282 289 283 282 276 259 243 229 217 211 208 213 221 231 263 298 314 324 332 334 334 334 333 332 332 330 330 331 329 329 328 328 327 325 324 323 323 323 322 322 321 321
257 267 266 267 273 272 277 277 281 289 282 272 253 235 223 217 211 213 216 218 244 279 302 319 330 332 333 332 331 330 331 330 329 328 328 327 327 327 326 324 323 322 322 322 322 320 321 320 321
253 255 262 263 264 271 281 280 289 269 265 253 247 236 212 212 214 212 218 234 257 287 306 320 327 327 327 328 329 331 330 329 329 328 327 327 327 327 326 325 324 324 323 322 320 319 317 316 316
246 247 238 248 260 267 273 248 292 297 273 261 251 235 222 217 212 221 233 248 268 291 310 318 322 325 327 328 329 330 331 332 331 330 330 331 331 332 331 330 329 328 326 324 322 319 317 313 313